User: anonymous   Login
Location: Bothell
(47.7630°N, 122.2040°W)
Time: 02:48:55
(UTC-07:00)
Language:

Oscar 16 - Orbit

View from above orbital plane
View from above orbital plane
View from above satellite
View from above satellite

Ground track
Ground track

The orbit data is extracted from the following two-line orbital elements,

1 20439U 90005D   15182.46886803  .00000036  00000-0  29446-4 0  9990
2 20439 098.5407 118.4545 0011909 115.5342 000.3350 14.32552543328785
Epoch (UTC): 01 July 2015 11:15:10
Eccentricity: 0.0011909
inclination: 98.5407°
perigee height: 774 km
apogee height: 792 km
right ascension of ascending node: 118.4545°
argument of perigee: 115.5342°
revolutions per day: 14.32552543
mean anomaly at epoch: 0.3350°
orbit number at epoch: 32878

The dashed part of the orbit path shows where the satellite is in the earth's shadow,  

DLR